CZ-3C DEB, 42477

Orbit data source: Space-Track

CZ-3C DEB, 42477 is space debris in HEO originally from a launch on Fri, 24 Feb 2012 UTC launched from the Xichang Space Center, China (XSC). Debris objects in space refer to the collection of defunct objects orbiting the Earth. Examples of debris include non-operational satellites, rocket bodies, and fragments generated from explosions, collisions, or faulty payload assembly.

Loading next visibility...
Identifier
42477, 2012-008AM
Orbit
HEO
Country
Flag of CNCN / PRC
Related business
Manufacturer
CALT
Mission
Spacecraft
Bus & Motor
Unknown
Mass
Unknown
Launch date (UTC)
2012-02-24 (14 years ago)
Launch vehicle
Unknown
Launch site
Xichang Space Center, China (XSC)
Object type
Payload
Rocket body
Debris
Shape & HBR
Unknown shape, 0.2 m
Radar Cross Section
Medium (>0.1 m² and <1 m²)

Expand to show TLE details & history
Last TLE update: 23 hours ago

TLE from 23 hours ago
0 CZ-3C DEB
1 42477U 12008AM  26235.29975628  .00003908  00000-0  65430-2 0  9991
2 42477  20.0904 356.2445 6914290 205.2587  92.2396  2.67557259107726
Epoch: 2026-08-23T07:11Z
TLE epoch observation values (Epoch: 2026-08-23T07:11:38.942Z)
Latitude
0.00002°
Longitude
-83.25862°
Altitude
24,190.968 km
Speed
2.809 km/s
True Right ascension
23h 45m 00s
True Declination
0° 00' 00"
Sunlit
Object was in daylight at epoch
Visualization orbit readout
Latitude
Unknown
Longitude
Unknown
Altitude
Unknown
Speed
Unknown
Apparent Right ascension
Unknown
Apparent Declination
Unknown
Sunlit
N/A
Visualization observer readout
Local Sidereal Time
21:34:02
Azimuth
Unknown
Elevation
Unknown
Doppler factor
Unknown
Orbital elements
Apogee altitude
30,701.172 km
Perigee altitude
386.32 km
Semi-major axis
21,921.883 km
Eccentricity
0.69143
Inclination
20.0904°
RAAN
356.2445°
Arg. of periapsis
205.2587°
True anomaly
154.81438°
Mean anomaly
92.2396°
Eccentric anomaly
124.77864°
Mean motion
0.66869 °/min
Orbital period
538.36 mins
BSTAR
0.006543
Loading maneuver chart data...
Computing Atmospheric mass density...
Loading historical data...
Loading historical data...
Loading historical data...
Loading historical data...
Loading historical data...
Loading historical data...
Loading historical data...

Documentation

Showing up to 5 results
|